Time,TemperatureF,DewpointF,PressureIn,WindDirection,WindDirectionDegrees,WindSpeedMPH,WindSpeedGustMPH,Humidity,HourlyPrecipIn,Conditions,Clouds,dailyrainin,SoftwareType,DateUTC
2013-04-19 00:30:00,58.8,58.8,26.71,East,95,0.0,0.0,100,0.01,,,-99.99,VWS V12.07,2013-04-19 04:30:00,
2013-04-19 00:59:00,58.3,58.3,26.69,East,83,0.0,0.0,100,0.01,,,-99.99,VWS V12.07,2013-04-19 04:59:00,
2013-04-19 01:29:00,57.9,57.9,26.68,East,100,0.0,0.0,100,0.02,,,-99.99,VWS V12.07,2013-04-19 05:29:00,
2013-04-19 02:00:00,57.6,57.6,26.68,ESE,106,9.0,17.0,100,0.03,,,-99.99,VWS V12.07,2013-04-19 06:00:00,
2013-04-19 02:29:00,57.3,57.3,26.66,NNE,30,2.0,13.0,100,0.01,,,-99.99,VWS V12.07,2013-04-19 06:29:00,
2013-04-19 02:59:00,57.0,57.0,26.65,ESE,108,9.0,15.0,100,0.00,,,-99.99,VWS V12.07,2013-04-19 06:59:00,
2013-04-19 03:29:00,57.0,57.0,26.63,SE,126,11.0,15.0,100,0.01,,,-99.99,VWS V12.07,2013-04-19 07:29:00,
2013-04-19 03:59:00,56.8,56.8,26.62,NE,48,5.0,9.0,100,0.02,,,-99.99,VWS V12.07,2013-04-19 07:59:00,
2013-04-19 04:29:00,56.9,56.9,26.62,East,100,3.0,12.0,100,0.02,,,-99.99,VWS V12.07,2013-04-19 08:29:00,
2013-04-19 04:59:00,57.0,57.0,26.61,SSE,147,13.0,20.0,100,0.03,,,-99.99,VWS V12.07,2013-04-19 08:59:00,
2013-04-19 05:29:00,57.2,57.2,26.60,SSE,155,9.0,15.0,100,0.03,,,-99.99,VWS V12.07,2013-04-19 09:29:00,
2013-04-19 05:59:00,57.1,57.1,26.59,SE,144,3.0,5.0,100,0.03,,,-99.99,VWS V12.07,2013-04-19 09:59:00,
2013-04-19 06:29:00,57.6,57.6,26.57,SE,146,26.0,36.0,100,0.01,,,-99.99,VWS V12.07,2013-04-19 10:29:00,
2013-04-19 06:59:00,57.7,57.7,26.58,ESE,117,15.0,16.0,100,0.00,,,-99.99,VWS V12.07,2013-04-19 10:59:00,
2013-04-19 07:29:00,57.7,57.7,26.60,ESE,103,8.0,25.0,100,0.00,,,-99.99,VWS V12.07,2013-04-19 11:29:00,
2013-04-19 07:59:00,58.4,58.4,26.61,SE,135,10.0,26.0,100,0.00,,,-99.99,VWS V12.07,2013-04-19 11:59:00,
2013-04-19 08:29:00,58.8,58.8,26.62,SSE,159,19.0,22.0,100,0.01,,,-99.99,VWS V12.07,2013-04-19 12:29:00,
2013-04-19 08:59:00,59.1,59.1,26.61,SSE,148,11.0,20.0,100,0.01,,,-99.99,VWS V12.07,2013-04-19 12:59:00,
2013-04-19 09:29:00,58.9,58.9,26.60,SSE,156,12.0,18.0,100,0.04,,,-99.99,VWS V12.07,2013-04-19 13:29:00,
2013-04-19 09:59:00,59.3,59.3,26.59,SSE,163,2.0,13.0,100,0.03,,,-99.99,VWS V12.07,2013-04-19 13:59:00,
2013-04-19 10:29:00,59.7,59.7,26.58,SSE,156,9.0,20.0,100,0.02,,,-99.99,VWS V12.07,2013-04-19 14:29:00,
2013-04-19 10:59:00,59.9,59.9,26.59,SSE,155,11.0,25.0,100,0.03,,,-99.99,VWS V12.07,2013-04-19 14:59:00,
2013-04-19 11:29:00,59.7,59.7,26.58,SSE,153,8.0,17.0,100,0.02,,,-99.99,VWS V12.07,2013-04-19 15:29:00,
2013-04-19 11:59:00,59.4,59.4,26.55,SE,130,4.0,34.0,100,0.01,,,-99.99,VWS V12.07,2013-04-19 15:59:00,
2013-04-19 12:29:00,60.2,60.2,26.54,SSE,148,7.0,16.0,100,0.01,,,-99.99,VWS V12.07,2013-04-19 16:29:00,
2013-04-19 12:59:00,60.2,60.2,26.53,SE,134,7.0,17.0,100,0.02,,,-99.99,VWS V12.07,2013-04-19 16:59:00,
2013-04-19 13:29:00,60.2,60.2,26.52,SSE,150,12.0,16.0,100,0.10,,,-99.99,VWS V12.07,2013-04-19 17:29:00,
2013-04-19 13:59:00,60.3,60.3,26.52,ESE,111,7.0,16.0,100,0.36,,,-99.99,VWS V12.07,2013-04-19 17:59:00,
2013-04-19 14:29:00,60.6,60.6,26.52,SE,143,13.0,14.0,100,0.45,,,-99.99,VWS V12.07,2013-04-19 18:29:00,
2013-04-19 14:59:00,60.3,60.3,26.54,SSE,156,16.0,17.0,100,0.49,,,-99.99,VWS V12.07,2013-04-19 18:59:00,
2013-04-19 15:29:00,60.3,60.3,26.53,SSE,155,12.0,14.0,100,0.35,,,-99.99,VWS V12.07,2013-04-19 19:29:00,
2013-04-19 15:59:00,60.2,60.2,26.52,SE,144,21.0,21.0,100,0.12,,,-99.99,VWS V12.07,2013-04-19 19:59:00,
2013-04-19 16:29:00,60.0,60.0,26.51,South,169,17.0,19.0,100,0.16,,,-99.99,VWS V12.07,2013-04-19 20:29:00,
2013-04-19 16:59:00,59.4,59.4,26.51,SE,145,1.0,9.0,100,0.13,,,-99.99,VWS V12.07,2013-04-19 20:59:00,
2013-04-19 17:29:00,55.3,55.3,26.52,SW,223,1.0,7.0,100,0.05,,,-99.99,VWS V12.07,2013-04-19 21:29:00,
2013-04-19 17:59:00,49.5,49.5,26.52,WSW,254,3.0,5.0,100,0.01,,,-99.99,VWS V12.07,2013-04-19 21:59:00,
2013-04-19 18:29:00,47.1,47.1,26.52,SW,216,4.0,16.0,100,0.00,,,-99.99,VWS V12.07,2013-04-19 22:29:00,
2013-04-19 18:59:00,46.3,46.3,26.51,West,266,3.0,6.0,100,0.00,,,-99.99,VWS V12.07,2013-04-19 22:59:00,
2013-04-19 19:30:00,45.5,45.5,26.53,NW,306,14.0,14.0,100,0.00,,,-99.99,VWS V12.07,2013-04-19 23:30:00,
2013-04-19 19:59:00,44.3,44.3,26.53,West,276,13.0,13.0,100,0.00,,,-99.99,VWS V12.07,2013-04-19 23:59:00,
2013-04-19 20:29:00,43.6,43.6,26.53,WSW,250,4.0,10.0,100,0.00,,,-99.99,VWS V12.07,2013-04-20 00:29:00,
2013-04-19 20:59:00,43.3,43.3,26.55,NW,311,6.0,7.0,100,0.00,,,-99.99,VWS V12.07,2013-04-20 00:59:00,
2013-04-19 21:29:00,42.9,42.4,26.56,SW,234,7.0,15.0,98,0.00,,,-99.99,VWS V12.07,2013-04-20 01:29:00,
2013-04-19 21:59:00,41.8,39.9,26.58,SSW,210,3.0,10.0,93,0.00,,,-99.99,VWS V12.07,2013-04-20 01:59:00,
2013-04-19 22:29:00,41.2,39.1,26.58,West,274,5.0,14.0,92,0.00,,,-99.99,VWS V12.07,2013-04-20 02:29:00,
2013-04-19 23:00:00,41.2,39.3,26.59,SW,214,5.0,17.0,93,0.00,,,-99.99,VWS V12.07,2013-04-20 03:00:00,
2013-04-19 23:29:00,40.6,38.7,26.60,West,262,10.0,14.0,93,0.00,,,-99.99,VWS V12.07,2013-04-20 03:29:00,
2013-04-19 23:59:00,39.9,38.0,26.60,WSW,258,7.0,16.0,93,0.00,,,-99.99,VWS V12.07,2013-04-20 03:59:00,